Home > Weather > Lahore > Past weeks

Flag for Pakistan Past Weather in Lahore, Pakistan — Yesterday and Last 2 Weeks

Now
82 °F

Thunderstorms. Duststorm.


Feels Like: 91 °F
Forecast: 77 / 88 °F
Wind: 10 mph from North

Location: Lahore Airport

Current Time: Jul 27, 2016 at 10:55:22 AM

Latest Report: Jul 27, 2016 at 10:29 AM


Visibility: 2 mi

Pressure: 29.77 "Hg

Humidity: 84%

Dew Point: 77 °F

Location of LahoreLocation

Past Weather in Lahore — Graph

°F

Lahore Temperature Yesterday

Maximum temperature yesterday: 100 °F (at 3:55 PM)
Minimum temperature yesterday: 84 °F (at 2:55 AM)
Average temperature yesterday: 91 °F

High & Low Weather Summary for the Past Weeks

 TemperatureHumidityPressure
High104 °F (Jul 20, 2:25 PM)100% (Jul 17, 2:55 AM)32.46 "Hg (Jul 17, 2:55 AM)
Low73 °F (Jul 17, 3:55 AM)38% (Jul 20, 2:59 PM)29.42 "Hg (Jul 14, 4:55 PM)
Average89 °F71%29.55 "Hg
* Reported Jul 12 9:25 AM — Jul 27 9:55 AM, Lahore, Weather by CustomWeather, © 2016

Note: Actual official high and low records may vary slightly from our data, if they occured in-between our weather recording intervals... More about our weather records

Advertising

Lahore Weather History for the Previous 24 Hours

Scroll right to see more
 ConditionsComfort  
Time TempWeatherWind HumidityBarometerVisibility
9:55 AM
Wed, Jul 27
86 °FBroken clouds.12 mph75%29.74 "Hg2 mi
9:25 AM84 °FFog.13 mph84%29.71 "Hg2 mi
8:55 AM84 °FFog.13 mph84%29.71 "Hg2 mi
8:25 AM82 °FBroken clouds.12 mph84%29.71 "Hg2 mi
8:00 AM82 °FBroken clouds.14 mph84%29.68 "Hg2 mi
7:30 AM82 °FBroken clouds.17 mph84%29.71 "Hg2 mi
7:00 AM82 °FBroken clouds.15 mph84%29.65 "Hg2 mi
6:30 AM82 °FThundershowers. Scattered clouds.16 mph84%29.65 "Hg2 mi
6:00 AM82 °FThundershowers. Scattered clouds.17 mph84%29.62 "Hg2 mi
5:00 AM82 °FThundershowers. Passing clouds.17 mph84%29.62 "Hg2 mi
4:30 AM82 °FPassing clouds.16 mph84%29.59 "Hg2 mi
4:00 AM82 °FPassing clouds.15 mph84%29.59 "Hg2 mi
3:30 AM82 °FPassing clouds.16 mph84%29.59 "Hg2 mi
3:00 AM82 °FPassing clouds.14 mph89%29.59 "Hg2 mi
2:30 AM84 °FPassing clouds.15 mph84%29.59 "Hg2 mi
1:30 AM84 °FPassing clouds.12 mph84%29.59 "Hg2 mi
1:00 AM84 °FPassing clouds.12 mph84%29.59 "Hg2 mi
12:30 AM86 °FPassing clouds.13 mph84%29.59 "Hg2 mi
12:00 AM86 °FPassing clouds.16 mph84%29.59 "Hg2 mi
11:30 PM
Tue, Jul 26
86 °FPassing clouds.16 mph79%29.62 "Hg2 mi
11:00 PM88 °FPassing clouds.13 mph75%29.62 "Hg2 mi
10:30 PM88 °FPassing clouds.10 mph75%29.62 "Hg3 mi
10:00 PM88 °FPassing clouds.9 mph75%29.62 "Hg3 mi
9:30 PM90 °FPassing clouds.12 mph71%29.62 "Hg3 mi
9:00 PM90 °FPassing clouds.7 mph71%29.59 "Hg3 mi
7:55 PM91 °FPassing clouds.9 mph67%29.56 "Hg3 mi
7:25 PM95 °FPassing clouds.8 mph56%29.56 "Hg4 mi
6:55 PM91 °FScattered clouds.7 mph63%29.56 "Hg4 mi
6:25 PM95 °FScattered clouds.12 mph60%29.56 "Hg4 mi
5:55 PM95 °FScattered clouds.13 mph60%29.53 "Hg4 mi
5:25 PM99 °FPassing clouds.10 mph57%29.53 "Hg4 mi
4:55 PM99 °FPassing clouds.8 mph57%29.53 "Hg4 mi
4:25 PM100 °FPassing clouds.9 mph53%29.53 "Hg4 mi
3:55 PM100 °FPassing clouds.6 mph53%29.53 "Hg4 mi
3:25 PM99 °FPassing clouds.5 mph53%29.56 "Hg4 mi
2:55 PM99 °FPassing clouds.6 mph53%29.56 "Hg4 mi
2:25 PM99 °FScattered clouds.6 mph57%29.59 "Hg4 mi
1:55 PM99 °FScattered clouds.6 mph57%29.59 "Hg4 mi
1:25 PM99 °FScattered clouds.7 mph57%29.59 "Hg4 mi
12:55 PM99 °FScattered clouds.6 mph57%29.62 "Hg4 mi
12:25 PM97 °FPassing clouds.5 mph56%29.62 "Hg3 mi
11:55 AM97 °FPassing clouds.6 mph56%29.65 "Hg3 mi
11:25 AM95 °FScattered clouds.5 mph63%29.65 "Hg3 mi
10:55 AM95 °FScattered clouds.6 mph63%29.65 "Hg3 mi
10:25 AM93 °FScattered clouds.5 mph67%29.65 "Hg3 mi
Weather by CustomWeather, © 2016

See weather overviewHow to use our weather pages